SCOUT A DEB, 2140

Orbit data source: Space-Track

SCOUT A DEB, 2140 is space debris in LEO originally from a launch on Fri, 28 Jan 1966 UTC launched from the Air Force Western Test Range (AFWTR). Debris objects in space refer to the collection of defunct objects orbiting the Earth. Examples of debris include non-operational satellites, rocket bodies, and fragments generated from explosions, collisions, or faulty payload assembly.

Loading next visibility...
Identifier
2140, 1966-005C
Orbit
LEO
Country
Flag of USUS
Related business
Manufacturer
Unknown
Mission
Spacecraft
Bus & Motor
Unknown
Mass
Unknown
Launch date (UTC)
1966-01-28 (60 years ago)
Launch vehicle
Unknown
Launch site
Air Force Western Test Range (AFWTR)
Object type
Payload
Rocket body
Debris
Shape & HBR
Unknown shape, 0.1 m
Radar Cross Section
Small (<0.1 m²)

Expand to show TLE details & history
Last TLE update: 2 days ago

TLE from 2 days ago
0 SCOUT A DEB
1 02140U 66005C   26033.48892428  .00000277  00000-0  31928-3 0  9995
2 02140  89.9530  51.1337 0315078 214.1943 143.8559 13.48377197940302
Epoch: 2026-02-02T11:44Z
TLE epoch observation values (Epoch: 2026-02-02T11:44:03.057Z)
Latitude
-0.00008°
Longitude
102.43748°
Altitude
1,273.422 km
Speed
7.125 km/s
True Right ascension
03h 24m 32s
True Declination
0° 00' 00"
Sunlit
Object was in daylight at epoch
Visualization orbit readout
Latitude
Unknown
Longitude
Unknown
Altitude
Unknown
Speed
Unknown
Apparent Right ascension
Unknown
Apparent Declination
Unknown
Sunlit
N/A
Visualization observer readout
Local Sidereal Time
06:49:27
Azimuth
Unknown
Elevation
Unknown
Doppler factor
Unknown
Orbital elements
Apogee altitude
1,310.124 km
Perigee altitude
840.442 km
Semi-major axis
7,453.42 km
Eccentricity
0.03151
Inclination
89.953°
RAAN
51.1337°
Arg. of periapsis
214.1943°
True anomaly
145.91929°
Mean anomaly
143.8559°
Eccentric anomaly
144.89409°
Mean motion
3.37295 °/min
Orbital period
106.73 mins
BSTAR
0.00031928
Loading maneuver chart data...
Computing Atmospheric mass density...
Loading historical data...
Loading historical data...
Loading historical data...
Loading historical data...
Loading historical data...
Loading historical data...
Loading historical data...

Documentation

Showing up to 5 results
|